Location: Killam
(52.7910°N, 111.8608°W)
Time: 21:20:44
(UTC+00:00)

A-11 Canister half - Pass Details

Date: 18 February 2026
Orbit: 1525 x 1683 km, 47.3° (Epoch: 5 March)

Event Time Altitude Azimuth Distance (km) Brightness Sun altitude
Rises 07:32:15 0° 284° (WNW) 4,683 11.7 -48.8°
Enters shadow 07:34:24 - 276° (W) 4,193 11.3 -48.8°
Reaches altitude 10° 07:37:01 10° 263° (W) 3,710 - -48.8°
Maximum altitude 07:41:39 15° 232° (SW) 3,344 - -48.8°
Drops below altitude 10° 07:46:20 10° 202° (SSW) 3,746 - -48.8°
Sets 07:51:14 0° 181° (S) 4,756 - -48.7°
